FW3284 Weather Reports


time (UTC)temp
C
wind
direction
speed
KPH
gust
KPH
rain 1hr
cm
rain 24hr
cm
rain mn
cm
humidity
%
barometer
mb
20260510154541 17 17 16.1 25.7 0.00 0.00 0.00 50 1017.7
20260510153018 17 360 8.0 16.1 0.00 0.00 0.00 58 1017.6
20260510151558 17 27 0.0 17.7 0.00 0.00 0.00 57 1017.7
20260510150043 17 33 8.0 20.9 0.00 0.00 0.00 60 1017.8
20260510144529 16 34 9.7 24.1 0.00 0.00 0.00 60 1018.3
20260510143007 16 23 11.3 20.9 0.00 0.00 0.00 62 1017.8
20260510141548 16 28 11.3 16.1 0.00 0.00 0.00 65 1017.6
20260510140029 16 31 9.7 24.1 0.00 0.00 0.00 67 1017.2
20260510134517 16 85 9.7 19.3 0.00 0.00 0.00 68 1016.9
20260510133057 15 34 0.0 4.8 0.00 0.00 0.00 72 1016.9
20260510131546 15 18 11.3 17.7 0.00 0.00 0.00 76 1016.8
20260510130021 15 28 9.7 19.3 0.00 0.00 0.00 78 1016.5
20260510124603 15 18 0.0 3.2 0.00 0.00 0.00 80 1016.2
20260510123043 15 34 0.0 17.7 0.00 0.00 0.00 80 1015.8
20260510121516 14 49 4.8 12.9 0.00 0.00 0.00 80 1015.8
20260510120055 13 18 4.8 11.3 0.00 0.03 0.00 82 1015.5
20260510114541 13 43 0.0 1.6 0.00 0.03 0.00 83 1015.3
20260510113018 13 37 0.0 1.6 0.00 0.03 0.00 82 1015.0
20260510111554 13 38 0.0 3.2 0.00 0.03 0.00 81 1014.8
20260510110030 14 39 0.0 4.8 0.00 0.03 0.00 81 1014.6
20260510104512 13 72 0.0 0.0 0.00 0.03 0.00 82 1014.3
20260510103052 13 1 0.0 0.0 0.00 0.03 0.00 82 1014.4
20260510101531 13 359 0.0 0.0 0.00 0.03 0.00 81 1014.2
20260510100009 13 1 0.0 0.0 0.00 0.03 0.00 80 1013.9
20260510094549 13 109 0.0 4.8 0.00 0.03 0.00 76 1013.6
20260510093028 14 101 0.0 1.6 0.00 0.03 0.00 75 1013.3
20260510091505 13 37 0.0 0.0 0.00 0.03 0.00 78 1013.1
20260510090047 13 89 0.0 0.0 0.00 0.03 0.00 81 1013.3
20260510084523 13 89 0.0 0.0 0.00 0.03 0.00 80 1013.0
20260510083005 13 89 0.0 0.0 0.00 0.03 0.00 79 1012.6
20260510081541 13 158 0.0 0.0 0.00 0.03 0.00 78 1012.7
20260510080022 13 158 0.0 0.0 0.00 0.03 0.00 79 1012.9
20260510074503 13 158 0.0 0.0 0.00 0.03 0.00 77 1012.8
20260510073042 14 158 0.0 0.0 0.00 0.03 0.00 74 1012.7
20260510071518 16 158 0.0 0.0 0.00 0.03 0.00 68 1012.7
20260510064557 16 158 0.0 0.0 0.00 0.03 0.00 67 1012.4
20260510063017 15 162 0.0 4.8 0.00 0.03 0.00 69 1012.6
20260510061555 17 72 0.0 0.0 0.00 0.03 0.00 63 1012.5
20260510060038 18 314 0.0 0.0 0.00 0.03 0.03 60 1012.5
20260510054518 18 251 0.0 0.0 0.00 0.03 0.03 59 1012.6
20260510053018 18 266 0.0 0.0 0.00 0.03 0.03 60 1012.6
20260510051549 18 284 0.0 0.0 0.00 0.03 0.03 59 1012.6
20260510050035 17 345 0.0 0.0 0.00 0.03 0.03 65 1012.5
20260510044502 18 196 0.0 6.4 0.00 0.03 0.03 55 1011.9
20260510043044 19 231 1.6 6.4 0.00 0.03 0.03 51 1011.6
20260510041520 20 231 0.0 6.4 0.00 0.03 0.03 49 1011.5
20260510040002 19 205 0.0 8.0 0.00 0.03 0.03 50 1011.2
20260510034531 20 168 0.0 6.4 0.00 0.03 0.03 50 1011.3
20260510033012 20 169 1.6 8.0 0.00 0.03 0.03 47 1011.2
20260510031555 20 192 0.0 8.0 0.00 0.03 0.03 47 1011.1
20260510030027 20 182 0.0 4.8 0.00 0.03 0.03 49 1011.2
20260510024512 20 191 0.0 0.0 0.00 0.03 0.03 54 1010.9
20260510023052 21 192 0.0 4.8 0.00 0.03 0.03 44 1010.5
20260510021539 21 172 0.0 4.8 0.00 0.03 0.03 46 1010.1
20260510020022 22 182 0.0 0.0 0.00 0.03 0.03 47 1010.0
20260510014504 22 204 0.0 0.0 0.00 0.03 0.03 48 1009.7
20260510013051 22 218 0.0 4.8 0.00 0.03 0.03 44 1009.4
20260510011523 23 186 0.0 0.0 0.00 0.03 0.03 41 1009.2
20260510010004 24 226 0.0 0.0 0.00 0.03 0.03 36 1009.1
20260510004543 25 226 0.0 0.0 0.00 0.03 0.03 36 1008.8
20260510003028 25 226 0.0 0.0 0.00 0.03 0.03 34 1008.9
20260510001507 25 226 0.0 0.0 0.00 0.03 0.03 34 1008.9
20260510000057 26 198 0.0 0.0 0.00 0.03 0.03 35 1008.9
20260509234538 26 217 0.0 0.0 0.00 0.03 0.03 33 1008.8
20260509233007 26 248 1.6 11.3 0.00 0.03 0.03 33 1008.8
20260509231553 26 212 0.0 4.8 0.00 0.03 0.03 32 1008.8
20260509230033 26 196 0.0 6.4 0.00 0.03 0.03 31 1008.8
20260509224513 27 290 0.0 0.0 0.00 0.03 0.03 34 1008.8
20260509223049 27 282 0.0 0.0 0.00 0.03 0.03 30 1008.9
20260509221537 27 214 0.0 9.7 0.00 0.03 0.03 32 1008.8
20260509220040 27 283 0.0 0.0 0.00 0.03 0.03 33 1008.8
20260509214506 27 16 0.0 0.0 0.00 0.03 0.03 31 1008.8
20260509213045 27 257 3.2 9.7 0.00 0.03 0.03 30 1008.8
20260509211519 26 233 4.8 17.7 0.00 0.03 0.03 36 1008.9
20260509210057 26 276 0.0 16.1 0.00 0.03 0.03 34 1009.1
20260509204535 26 219 0.0 0.0 0.00 0.03 0.03 31 1009.2
20260509203029 26 298 0.0 0.0 0.00 0.03 0.03 33 1009.4
20260509201553 27 288 0.0 6.4 0.00 0.03 0.03 32 1009.5
20260509201502 27 249 0.0 6.4 0.00 0.03 0.03 34 1009.5
20260509200044 26 253 6.4 14.5 0.00 0.03 0.03 32 1009.8
20260509194519 26 293 0.0 0.0 0.00 0.03 0.03 38 1009.9
20260509193051 26 224 0.0 0.0 0.00 0.03 0.03 35 1009.9
20260509191533 26 255 0.0 9.7 0.00 0.03 0.03 35 1009.9
20260509190014 26 234 1.6 11.3 0.00 0.03 0.03 33 1009.9
20260509184551 25 280 0.0 0.0 0.00 0.03 0.03 40 1010.0
20260509183036 25 302 0.0 4.8 0.00 0.03 0.03 39 1009.9
20260509181511 25 266 6.4 17.7 0.00 0.03 0.03 40 1010.1
20260509180052 25 300 9.7 19.3 0.00 0.03 0.03 37 1010.0
20260509174545 24 304 12.9 20.9 0.00 0.03 0.03 42 1010.1
20260509173018 24 286 4.8 12.9 0.00 0.03 0.03 41 1010.4
20260509171554 24 303 0.0 9.7 0.00 0.03 0.03 42 1010.4
20260509170032 23 252 4.8 16.1 0.00 0.03 0.03 41 1010.4
20260509164509 23 324 9.7 19.3 0.00 0.03 0.03 44 1010.5
20260509163049 23 264 6.4 9.7 0.00 0.03 0.03 48 1010.6
20260509161541 23 257 6.4 11.3 0.00 0.03 0.03 45 1010.6
20260509160007 22 307 0.0 0.0 0.00 0.03 0.03 53 1010.6